AWE912 KMIA-KCHS

Flight info

Callsign AWE912
Flight time 1h 29m
Altitude 35000
Route ALTNN2 DUCEN Q87 VIYAP SAV BAGGY3
Aircraft A321/M-SDE3FGHIRWY/LB1

Departure

Time 2026-04-26 17:20
Airport Miami International Airport (KMIA)

Arrival

Time 2026-04-26 18:50
Airport Charleston International Airport (KCHS)
Time Latitude Longitude Altitude Speed Heading
2026-04-26 16:54 25.79820 -80.28413 19 ft 0 kts 178°
2026-04-26 17:11 25.79834 -80.28413 18 ft 3 kts 178°
2026-04-26 17:11 25.79853 -80.28413 20 ft 3 kts 200°
2026-04-26 17:11 25.79870 -80.28402 18 ft 3 kts 231°
2026-04-26 17:11 25.79880 -80.28383 17 ft 3 kts 262°
2026-04-26 17:12 25.79881 -80.28380 17 ft 0 kts 262°
2026-04-26 17:13 25.79880 -80.28380 17 ft 0 kts 262°
2026-04-26 17:14 25.79880 -80.28381 17 ft 0 kts 262°
2026-04-26 17:14 25.79886 -80.28433 19 ft 7 kts 298°
2026-04-26 17:14 25.79923 -80.28483 18 ft 12 kts 311°
2026-04-26 17:15 25.80025 -80.28604 20 ft 12 kts 268°
2026-04-26 17:15 25.80020 -80.28699 23 ft 13 kts 268°
2026-04-26 17:15 25.80015 -80.28807 23 ft 16 kts 267°
2026-04-26 17:16 25.80009 -80.28944 21 ft 20 kts 266°
2026-04-26 17:16 25.80002 -80.29107 22 ft 22 kts 267°
2026-04-26 17:16 25.79996 -80.29288 21 ft 25 kts 268°
2026-04-26 17:16 25.79986 -80.29501 15 ft 30 kts 266°
2026-04-26 17:17 25.79977 -80.29695 15 ft 21 kts 268°
2026-04-26 17:17 25.79981 -80.29774 16 ft 5 kts 306°
2026-04-26 17:17 25.79990 -80.29778 16 ft 0 kts 341°
2026-04-26 17:18 25.79991 -80.29779 15 ft 1 kts 338°
2026-04-26 17:18 25.79991 -80.29789 15 ft 1 kts 259°
2026-04-26 17:18 25.79975 -80.29832 13 ft 12 kts 254°
2026-04-26 17:18 25.79968 -80.29968 12 ft 23 kts 274°
2026-04-26 17:19 25.80076 -80.30088 15 ft 0 kts 89°
2026-04-26 17:19 25.80077 -80.30061 14 ft 21 kts 89°
2026-04-26 17:19 25.80089 -80.29614 15 ft 92 kts 88°
2026-04-26 17:20 25.80130 -80.28677 21 ft 148 kts 86°
2026-04-26 17:20 25.80149 -80.28270 17 ft 164 kts 88°
2026-04-26 17:20 25.80250 -80.25916 569 ft 199 kts 90°
2026-04-26 17:20 25.80304 -80.24326 846 ft 213 kts 89°
2026-04-26 17:21 25.80364 -80.22638 1204 ft 225 kts 89°
2026-04-26 17:21 25.80427 -80.20843 1600 ft 241 kts 89°
2026-04-26 17:21 25.80488 -80.18925 1954 ft 260 kts 89°
2026-04-26 17:21 25.80783 -80.16977 2775 ft 262 kts 64°
2026-04-26 17:22 25.82002 -80.15482 3408 ft 270 kts 30°
2026-04-26 17:22 25.83793 -80.14914 3892 ft 271 kts
2026-04-26 17:22 25.85681 -80.14956 4392 ft 272 kts 355°
2026-04-26 17:22 25.87570 -80.15166 4888 ft 274 kts 354°
2026-04-26 17:23 25.89454 -80.15470 5376 ft 275 kts 342°
2026-04-26 17:23 25.91212 -80.16273 5771 ft 283 kts 336°
2026-04-26 17:23 25.93046 -80.17053 6504 ft 281 kts 340°
2026-04-26 17:23 25.94901 -80.17733 7282 ft 280 kts 341°
2026-04-26 17:24 25.96766 -80.18373 7990 ft 281 kts 341°
2026-04-26 17:24 25.98649 -80.18978 8676 ft 283 kts 346°
2026-04-26 17:24 26.00617 -80.19232 9353 ft 286 kts 353°
2026-04-26 17:24 26.02612 -80.19416 10009 ft 288 kts 353°
2026-04-26 17:25 26.04648 -80.19615 10325 ft 304 kts 353°
2026-04-26 17:25 26.06806 -80.19835 10604 ft 318 kts 353°
2026-04-26 17:25 26.09048 -80.20065 10976 ft 328 kts 352°
2026-04-26 17:25 26.11324 -80.20302 11329 ft 338 kts 352°
2026-04-26 17:26 26.13698 -80.20553 11693 ft 348 kts 352°
2026-04-26 17:26 26.16143 -80.20810 12073 ft 357 kts 352°
2026-04-26 17:26 26.18649 -80.21071 12451 ft 366 kts 352°
2026-04-26 17:26 26.21212 -80.21330 12737 ft 377 kts 353°
2026-04-26 17:27 26.23876 -80.21575 12869 ft 391 kts 353°
2026-04-26 17:27 26.26616 -80.21813 13179 ft 398 kts 353°
2026-04-26 17:27 26.29391 -80.22049 13628 ft 401 kts 353°
2026-04-26 17:27 26.32180 -80.22286 14065 ft 404 kts 353°
2026-04-26 17:28 26.34988 -80.22529 14511 ft 406 kts 353°
2026-04-26 17:28 26.37818 -80.22778 14947 ft 409 kts 353°
2026-04-26 17:28 26.40624 -80.23042 15370 ft 411 kts 353°
2026-04-26 17:28 26.43472 -80.23333 15777 ft 413 kts 352°
2026-04-26 17:29 26.46343 -80.23638 16185 ft 415 kts 352°
2026-04-26 17:29 26.47314 -80.23742 16327 ft 416 kts 352°
2026-04-26 17:29 26.52123 -80.24258 17003 ft 420 kts 352°
2026-04-26 17:29 26.55041 -80.24568 17408 ft 422 kts 352°
2026-04-26 17:30 26.57974 -80.24908 17825 ft 424 kts 351°
2026-04-26 17:30 26.60906 -80.25342 18230 ft 426 kts 349°
2026-04-26 17:30 26.63843 -80.25843 18588 ft 428 kts 348°
2026-04-26 17:30 26.66786 -80.26373 18926 ft 430 kts 348°
2026-04-26 17:31 26.69744 -80.26937 19273 ft 431 kts 346°
2026-04-26 17:31 26.72612 -80.27891 19610 ft 431 kts 338°
2026-04-26 17:31 26.75382 -80.29067 19953 ft 433 kts 338°
2026-04-26 17:31 26.78208 -80.30257 20283 ft 435 kts 338°
2026-04-26 17:32 26.81049 -80.31447 20623 ft 437 kts 338°
2026-04-26 17:32 26.83902 -80.32637 20953 ft 439 kts 338°
2026-04-26 17:32 26.86769 -80.33830 21287 ft 440 kts 338°
2026-04-26 17:32 26.89648 -80.35029 21598 ft 443 kts 338°
2026-04-26 17:33 26.92543 -80.36240 21916 ft 445 kts 338°
2026-04-26 17:33 26.95438 -80.37448 22233 ft 447 kts 338°
2026-04-26 17:33 26.98370 -80.38648 22550 ft 449 kts 339°
2026-04-26 17:34 27.04238 -80.41000 23157 ft 453 kts 339°
2026-04-26 17:34 27.07216 -80.42186 23446 ft 455 kts 339°
2026-04-26 17:34 27.10197 -80.43383 23701 ft 456 kts 338°
2026-04-26 17:34 27.13180 -80.44640 23924 ft 458 kts 338°
2026-04-26 17:35 27.16145 -80.45948 24150 ft 459 kts 337°
2026-04-26 17:35 27.19112 -80.47291 24360 ft 461 kts 336°
2026-04-26 17:35 27.22090 -80.48643 24577 ft 462 kts 336°
2026-04-26 17:35 27.25072 -80.49990 24760 ft 463 kts 337°
2026-04-26 17:36 27.28034 -80.51315 24946 ft 465 kts 337°
2026-04-26 17:36 27.31041 -80.52651 25182 ft 464 kts 337°
2026-04-26 17:36 27.34042 -80.53981 25456 ft 463 kts 337°
2026-04-26 17:36 27.37038 -80.55299 25718 ft 463 kts 338°
2026-04-26 17:37 27.40057 -80.56565 25978 ft 462 kts 339°
2026-04-26 17:37 27.43086 -80.57768 26242 ft 462 kts 339°
2026-04-26 17:37 27.46128 -80.58941 26505 ft 461 kts 340°
2026-04-26 17:38 27.52199 -80.61281 27028 ft 460 kts 339°
2026-04-26 17:38 27.55217 -80.62467 27298 ft 460 kts 339°
2026-04-26 17:38 27.58195 -80.63650 27563 ft 459 kts 339°
2026-04-26 17:38 27.61199 -80.64854 27827 ft 459 kts 339°
2026-04-26 17:39 27.64206 -80.66061 28099 ft 458 kts 339°
2026-04-26 17:39 27.67211 -80.67264 28368 ft 458 kts 339°
2026-04-26 17:39 27.70206 -80.68462 28639 ft 457 kts 339°
2026-04-26 17:39 27.73202 -80.69657 28901 ft 457 kts 339°
2026-04-26 17:40 27.76197 -80.70854 29113 ft 456 kts 338°
2026-04-26 17:40 27.77205 -80.71257 29212 ft 455 kts 339°
2026-04-26 17:40 27.82153 -80.73236 29708 ft 453 kts 338°
2026-04-26 17:40 27.85086 -80.74410 29986 ft 452 kts 338°
2026-04-26 17:41 27.88050 -80.75596 30234 ft 451 kts 338°
2026-04-26 17:41 27.91013 -80.76784 30486 ft 450 kts 338°
2026-04-26 17:41 27.93959 -80.77967 30723 ft 449 kts 338°
2026-04-26 17:41 27.96900 -80.79147 30982 ft 448 kts 338°
2026-04-26 17:42 27.99836 -80.80325 31232 ft 447 kts 338°
2026-04-26 17:42 28.02761 -80.81498 31495 ft 445 kts 338°
2026-04-26 17:42 28.05669 -80.82667 31751 ft 444 kts 338°
2026-04-26 17:42 28.08575 -80.83837 32015 ft 442 kts 338°
2026-04-26 17:43 28.11469 -80.85005 32283 ft 440 kts 338°
2026-04-26 17:43 28.14349 -80.86165 32543 ft 439 kts 338°
2026-04-26 17:43 28.17182 -80.87306 32792 ft 437 kts 338°
2026-04-26 17:43 28.20079 -80.88472 33034 ft 436 kts 337°
2026-04-26 17:44 28.22896 -80.89608 33274 ft 434 kts 337°
2026-04-26 17:44 28.25738 -80.90756 33515 ft 433 kts 337°
2026-04-26 17:44 28.28568 -80.91899 33775 ft 432 kts 337°
2026-04-26 17:44 28.31396 -80.93038 34015 ft 430 kts 337°
2026-04-26 17:45 28.34214 -80.94174 34218 ft 429 kts 337°
2026-04-26 17:45 28.37020 -80.95309 34419 ft 428 kts 337°
2026-04-26 17:45 28.39813 -80.96442 34613 ft 426 kts 337°
2026-04-26 17:45 28.41665 -80.97194 34749 ft 426 kts 337°
2026-04-26 17:46 28.44454 -80.98326 34909 ft 425 kts 337°
2026-04-26 17:46 28.48149 -80.99827 34963 ft 427 kts 337°
2026-04-26 17:46 28.53750 -81.02101 34960 ft 427 kts 337°
2026-04-26 17:47 28.57487 -81.03620 34956 ft 427 kts 337°
2026-04-26 17:47 28.63982 -81.06260 34947 ft 426 kts 336°
2026-04-26 17:48 28.70474 -81.08900 34951 ft 426 kts 336°
2026-04-26 17:48 28.75158 -81.10807 34966 ft 426 kts 336°
2026-04-26 17:49 28.80706 -81.13071 34974 ft 427 kts 336°
2026-04-26 17:49 28.86294 -81.15349 34978 ft 426 kts 336°
2026-04-26 17:50 28.91876 -81.17631 34980 ft 426 kts 336°
2026-04-26 17:50 28.97450 -81.19918 34998 ft 425 kts 336°
2026-04-26 17:51 29.03023 -81.22208 35001 ft 425 kts 336°
2026-04-26 17:51 29.08546 -81.24475 35003 ft 425 kts 336°
2026-04-26 17:52 29.14105 -81.26752 35002 ft 424 kts 336°
2026-04-26 17:52 29.19661 -81.29033 34998 ft 423 kts 336°
2026-04-26 17:53 29.25196 -81.31313 34991 ft 423 kts 336°
2026-04-26 17:54 29.33993 -81.32710 35001 ft 432 kts 352°
2026-04-26 17:54 29.40007 -81.33047 35006 ft 432 kts 352°
2026-04-26 17:55 29.46005 -81.33395 35008 ft 432 kts 352°
2026-04-26 17:55 29.52007 -81.33749 35007 ft 431 kts 351°
2026-04-26 17:56 29.58002 -81.34102 35003 ft 431 kts 351°
2026-04-26 17:57 29.69928 -81.34812 34993 ft 430 kts 351°
2026-04-26 17:57 29.75910 -81.35167 34997 ft 430 kts 351°
2026-04-26 17:58 29.87852 -81.35868 35003 ft 429 kts 351°
2026-04-26 17:59 29.96745 -81.36399 35002 ft 428 kts 351°
2026-04-26 17:59 30.02696 -81.36758 35005 ft 428 kts 351°
2026-04-26 18:00 30.08634 -81.37108 34999 ft 427 kts 351°
2026-04-26 18:00 30.14523 -81.37459 34990 ft 426 kts 351°
2026-04-26 18:01 30.20441 -81.37812 34984 ft 426 kts 351°
2026-04-26 18:01 30.26353 -81.38168 34999 ft 425 kts 351°
2026-04-26 18:02 30.31257 -81.38461 34996 ft 424 kts 351°
2026-04-26 18:02 30.38138 -81.38873 35000 ft 423 kts 351°
2026-04-26 18:03 30.43973 -81.39217 34999 ft 422 kts 351°
2026-04-26 18:03 30.49842 -81.39563 34995 ft 422 kts 351°
2026-04-26 18:04 30.55702 -81.39873 34993 ft 421 kts 351°
2026-04-26 18:05 30.64474 -81.40314 34999 ft 420 kts 351°
2026-04-26 18:05 30.70306 -81.40629 34992 ft 419 kts 351°
2026-04-26 18:06 30.76126 -81.40948 34986 ft 419 kts 351°
2026-04-26 18:06 30.81911 -81.41255 34982 ft 419 kts 351°
2026-04-26 18:07 30.87737 -81.41559 34977 ft 419 kts 351°
2026-04-26 18:07 30.93569 -81.41861 34972 ft 419 kts 351°
2026-04-26 18:08 30.99389 -81.42178 34971 ft 419 kts 350°
2026-04-26 18:08 31.05184 -81.42494 34972 ft 419 kts 351°
2026-04-26 18:09 31.11011 -81.42803 34974 ft 419 kts 350°
2026-04-26 18:09 31.16831 -81.43115 34972 ft 419 kts 350°
2026-04-26 18:10 31.22658 -81.43426 34982 ft 419 kts 350°
2026-04-26 18:10 31.28550 -81.42707 34984 ft 434 kts
2026-04-26 18:11 31.34405 -81.41156 34982 ft 435 kts
2026-04-26 18:11 31.40304 -81.39601 34981 ft 435 kts
2026-04-26 18:12 31.46209 -81.38052 34976 ft 435 kts
2026-04-26 18:12 31.52107 -81.36503 34973 ft 435 kts
2026-04-26 18:13 31.58015 -81.34947 34963 ft 435 kts
2026-04-26 18:13 31.63871 -81.33402 34965 ft 435 kts
2026-04-26 18:14 31.69783 -81.31838 34965 ft 435 kts
2026-04-26 18:14 31.75687 -81.30272 34962 ft 435 kts
2026-04-26 18:15 31.81594 -81.28712 34953 ft 435 kts
2026-04-26 18:15 31.87510 -81.27147 34951 ft 436 kts
2026-04-26 18:16 31.93388 -81.25581 34955 ft 436 kts
2026-04-26 18:16 32.02273 -81.23217 34949 ft 437 kts
2026-04-26 18:17 32.08203 -81.21644 34967 ft 437 kts
2026-04-26 18:17 32.13935 -81.18911 34974 ft 458 kts 25°
2026-04-26 18:18 32.16472 -81.16556 34970 ft 470 kts 37°
2026-04-26 18:18 32.18635 -81.13607 34970 ft 481 kts 46°
2026-04-26 18:18 32.22597 -81.07297 34955 ft 479 kts 46°
2026-04-26 18:19 32.24549 -81.04180 34936 ft 465 kts 46°
2026-04-26 18:19 32.26441 -81.01154 34941 ft 450 kts 45°
2026-04-26 18:19 32.30112 -80.95301 34944 ft 440 kts 45°
2026-04-26 18:20 32.33774 -80.89506 34947 ft 440 kts 45°
2026-04-26 18:20 32.36816 -80.84682 34955 ft 440 kts 45°
2026-04-26 18:21 32.41055 -80.77910 34961 ft 441 kts 45°
2026-04-26 18:21 32.44702 -80.72064 34965 ft 441 kts 45°
2026-04-26 18:22 32.48347 -80.66215 34021 ft 444 kts 45°
2026-04-26 18:22 32.50197 -80.63233 32497 ft 455 kts 49°
2026-04-26 18:22 32.51622 -80.59841 31426 ft 465 kts 69°
2026-04-26 18:23 32.52170 -80.56074 30530 ft 466 kts 87°
2026-04-26 18:23 32.51814 -80.52333 29581 ft 462 kts 104°
2026-04-26 18:23 32.50661 -80.48755 27641 ft 471 kts 122°
2026-04-26 18:23 32.48638 -80.45746 26441 ft 460 kts 142°
2026-04-26 18:24 32.46074 -80.43669 25587 ft 436 kts 160°
2026-04-26 18:24 32.43272 -80.42634 24685 ft 413 kts 179°
2026-04-26 18:24 32.40492 -80.42680 23771 ft 391 kts 197°
2026-04-26 18:24 32.37896 -80.43461 22687 ft 381 kts 201°
2026-04-26 18:25 32.35366 -80.44349 21548 ft 377 kts 202°
2026-04-26 18:25 32.32875 -80.45252 20465 ft 373 kts 202°
2026-04-26 18:25 32.30411 -80.46163 19410 ft 369 kts 202°
2026-04-26 18:25 32.27970 -80.47081 18394 ft 366 kts 202°
2026-04-26 18:26 32.25591 -80.47991 17314 ft 363 kts 202°
2026-04-26 18:26 32.23232 -80.48905 16745 ft 344 kts 202°
2026-04-26 18:26 32.21024 -80.49756 16292 ft 326 kts 202°
2026-04-26 18:26 32.18899 -80.50576 15586 ft 318 kts 202°
2026-04-26 18:27 32.16811 -80.51389 14844 ft 313 kts 202°
2026-04-26 18:27 32.14756 -80.52200 14107 ft 309 kts 202°
2026-04-26 18:27 32.12733 -80.53007 13337 ft 305 kts 202°
2026-04-26 18:27 32.10730 -80.53815 12538 ft 302 kts 202°
2026-04-26 18:28 32.08782 -80.54603 11766 ft 299 kts 202°
2026-04-26 18:28 32.06830 -80.55392 11192 ft 296 kts 202°
2026-04-26 18:28 32.04875 -80.56185 11022 ft 298 kts 202°
2026-04-26 18:28 32.02915 -80.56981 10985 ft 298 kts 202°
2026-04-26 18:29 32.00956 -80.57778 10988 ft 299 kts 202°
2026-04-26 18:29 31.98990 -80.58577 10988 ft 298 kts 202°
2026-04-26 18:29 31.97029 -80.59374 10987 ft 298 kts 202°
2026-04-26 18:29 31.95091 -80.60163 10986 ft 299 kts 202°
2026-04-26 18:30 31.93130 -80.60962 10984 ft 299 kts 202°
2026-04-26 18:30 31.91164 -80.61763 10983 ft 299 kts 202°
2026-04-26 18:30 31.89214 -80.62603 10976 ft 297 kts 209°
2026-04-26 18:30 31.87565 -80.63997 10984 ft 291 kts 230°
2026-04-26 18:31 31.86490 -80.65970 10979 ft 286 kts 251°
2026-04-26 18:31 31.86117 -80.68239 10983 ft 283 kts 272°
2026-04-26 18:31 31.86472 -80.70493 10981 ft 282 kts 292°
2026-04-26 18:31 31.87491 -80.72448 10979 ft 283 kts 312°
2026-04-26 18:32 31.89056 -80.73843 10980 ft 286 kts 333°
2026-04-26 18:32 31.90974 -80.74475 10977 ft 291 kts 354°
2026-04-26 18:32 31.93094 -80.74251 10988 ft 322 kts
2026-04-26 18:32 31.95379 -80.73739 10985 ft 345 kts
2026-04-26 18:33 31.97757 -80.73197 10989 ft 351 kts
2026-04-26 18:33 32.00132 -80.72653 10989 ft 353 kts
2026-04-26 18:33 32.02542 -80.72102 10991 ft 353 kts
2026-04-26 18:33 32.04951 -80.71554 10993 ft 353 kts
2026-04-26 18:34 32.07365 -80.71007 10993 ft 353 kts
2026-04-26 18:34 32.09779 -80.70460 10998 ft 353 kts
2026-04-26 18:34 32.12187 -80.69911 11000 ft 353 kts
2026-04-26 18:34 32.14599 -80.69363 11001 ft 353 kts
2026-04-26 18:35 32.17006 -80.68823 10999 ft 353 kts
2026-04-26 18:35 32.19363 -80.68008 10997 ft 356 kts 23°
2026-04-26 18:35 32.21380 -80.66356 11000 ft 362 kts 43°
2026-04-26 18:35 32.22984 -80.64051 11002 ft 364 kts 50°
2026-04-26 18:36 32.24530 -80.61675 11000 ft 365 kts 50°
2026-04-26 18:36 32.26071 -80.59300 10997 ft 365 kts 50°
2026-04-26 18:36 32.27614 -80.56924 10998 ft 365 kts 50°
2026-04-26 18:36 32.29159 -80.54544 10998 ft 365 kts 50°
2026-04-26 18:37 32.30703 -80.52170 10996 ft 365 kts 50°
2026-04-26 18:37 32.32254 -80.49793 10994 ft 365 kts 50°
2026-04-26 18:37 32.33788 -80.47440 10996 ft 373 kts 50°
2026-04-26 18:37 32.35383 -80.44997 10990 ft 369 kts 50°
2026-04-26 18:38 32.36913 -80.42649 10810 ft 353 kts 50°
2026-04-26 18:38 32.38382 -80.40389 10574 ft 341 kts 50°
2026-04-26 18:38 32.39801 -80.38202 10336 ft 330 kts 50°
2026-04-26 18:38 32.41176 -80.36083 10103 ft 320 kts 50°
2026-04-26 18:39 32.42515 -80.34026 9908 ft 310 kts 50°
2026-04-26 18:39 32.43790 -80.32063 9774 ft 302 kts 50°
2026-04-26 18:39 32.45065 -80.30099 9654 ft 300 kts 50°
2026-04-26 18:39 32.46337 -80.28138 9518 ft 300 kts 50°
2026-04-26 18:40 32.47603 -80.26186 9395 ft 299 kts 50°
2026-04-26 18:40 32.48868 -80.24236 9271 ft 298 kts 50°
2026-04-26 18:40 32.50129 -80.22290 9129 ft 297 kts 50°
2026-04-26 18:40 32.51390 -80.20346 9010 ft 297 kts 50°
2026-04-26 18:41 32.52621 -80.18447 8890 ft 290 kts 50°
2026-04-26 18:41 32.53822 -80.16590 8759 ft 278 kts 50°
2026-04-26 18:41 32.54976 -80.14804 8638 ft 268 kts 50°
2026-04-26 18:41 32.56097 -80.13064 8347 ft 265 kts 50°
2026-04-26 18:42 32.57223 -80.11319 7931 ft 268 kts 50°
2026-04-26 18:42 32.58364 -80.09559 7501 ft 271 kts 50°
2026-04-26 18:42 32.59522 -80.07772 7049 ft 275 kts 50°
2026-04-26 18:42 32.60689 -80.05963 6606 ft 278 kts 51°
2026-04-26 18:43 32.61855 -80.04151 6137 ft 282 kts 51°
2026-04-26 18:43 32.63051 -80.02292 5658 ft 284 kts 51°
2026-04-26 18:43 32.64254 -80.00424 5180 ft 283 kts 51°
2026-04-26 18:43 32.65418 -79.98616 4732 ft 270 kts 51°
2026-04-26 18:44 32.66516 -79.96903 4522 ft 249 kts 51°
2026-04-26 18:44 32.67548 -79.95292 4464 ft 243 kts 51°
2026-04-26 18:44 32.68567 -79.93705 4364 ft 241 kts 51°
2026-04-26 18:44 32.69582 -79.92127 4264 ft 240 kts 51°
2026-04-26 18:45 32.70558 -79.90612 4156 ft 227 kts 51°
2026-04-26 18:45 32.71573 -79.89237 4047 ft 219 kts 33°
2026-04-26 18:45 32.72977 -79.88772 3764 ft 209 kts 350°
2026-04-26 18:45 32.74192 -79.89588 3518 ft 206 kts 307°
2026-04-26 18:46 32.74934 -79.91047 3300 ft 207 kts 301°
2026-04-26 18:46 32.75759 -79.92444 3043 ft 207 kts 312°
2026-04-26 18:46 32.76829 -79.93573 2791 ft 206 kts 323°
2026-04-26 18:46 32.77992 -79.94563 2544 ft 206 kts 326°
2026-04-26 18:47 32.79161 -79.95528 2294 ft 198 kts 326°
2026-04-26 18:47 32.80236 -79.96405 2117 ft 184 kts 326°
2026-04-26 18:47 32.81241 -79.97214 2038 ft 165 kts 327°
2026-04-26 18:47 32.82173 -79.97924 2000 ft 159 kts 329°
2026-04-26 18:48 32.83102 -79.98624 1903 ft 158 kts 329°
2026-04-26 18:48 32.84003 -79.99355 1542 ft 155 kts 326°
2026-04-26 18:48 32.84901 -80.00060 1110 ft 156 kts 329°
2026-04-26 18:48 32.85818 -80.00713 874 ft 154 kts 330°
2026-04-26 18:49 32.86722 -80.01395 626 ft 155 kts 329°
2026-04-26 18:49 32.87628 -80.02056 388 ft 150 kts 332°
2026-04-26 18:49 32.88515 -80.02717 221 ft 152 kts 330°
2026-04-26 18:49 32.89416 -80.03389 70 ft 153 kts 330°
2026-04-26 18:50 32.90230 -80.03992 47 ft 106 kts 328°
2026-04-26 18:50 32.90601 -80.04282 47 ft 35 kts 328°
2026-04-26 18:50 32.90800 -80.04435 51 ft 24 kts 311°
2026-04-26 18:50 32.90774 -80.04541 49 ft 11 kts 222°
2026-04-26 18:51 32.90709 -80.04638 49 ft 18 kts 227°
2026-04-26 18:51 32.90611 -80.04603 47 ft 20 kts 146°
2026-04-26 18:51 32.90471 -80.04488 45 ft 28 kts 146°
2026-04-26 18:51 32.90322 -80.04436 44 ft 20 kts 205°
2026-04-26 18:52 32.90161 -80.04448 46 ft 26 kts 179°
2026-04-26 18:52 32.90033 -80.04446 49 ft 29 kts 181°
2026-04-26 18:52 32.89720 -80.04454 51 ft 37 kts 181°
2026-04-26 18:52 32.89452 -80.04459 47 ft 41 kts 181°
2026-04-26 18:53 32.89298 -80.04407 41 ft 20 kts 97°
2026-04-26 18:53 32.89297 -80.04211 42 ft 27 kts 99°
2026-04-26 18:53 32.89252 -80.03964 41 ft 33 kts 103°
2026-04-26 18:53 32.89203 -80.03675 46 ft 34 kts 101°
2026-04-26 18:54 32.89091 -80.03597 48 ft 24 kts 184°
2026-04-26 18:54 32.88901 -80.03619 43 ft 32 kts 188°
2026-04-26 18:54 32.88699 -80.03649 38 ft 21 kts 187°
2026-04-26 18:54 32.88620 -80.03726 35 ft 5 kts 226°
2026-04-26 18:55 32.88607 -80.03740 37 ft 0 kts 226°